Regional Weather Roundup
Issued by NWS

Home | Current Version | Previous Version | Graphics & Text | Print | Product List | Glossary On
Versions: 1 2 3 4 5 6 7 8 9 10 11 12 13 14 15 16 17 18 19 20 21 22 23 24 25 26 27 28 29 30 31 32 33 34 35 36 37 38 39 40 41 42 43 44 45 46 47 48 49 50
000
ASUS43 KFSD 271810
RWRSD

WEATHER ROUNDUP FOR SOUTH DAKOTA
NATIONAL WEATHER SERVICE SIOUX FALLS SD
100 PM CDT MON APR 27 2015

NOTE: "FAIR" INDICATES FEW OR NO CLOUDS BELOW 12,000 FEET WITH NO
SIGNIFICANT WEATHER AND/OR OBSTRUCTIONS TO VISIBILITY.


SDZ001>005-009-010-012>017-271900-
NORTHWEST AND NORTH CENTRAL SOUTH DAKOTA

CITY           SKY/WX    TMP DP  RH WIND       PRES   REMARKS
BUFFALO          N/A     44  37  76 NW16      30.27S
FAITH            N/A     47  40  76 NW15      30.29S
MOBRIDGE       MOSUNNY   64  42  44 NW12      30.21F
$$

SDZ012>016-024>037-041>051-057-063-072>074-271900-
SOUTHWEST AND SOUTH CENTRAL SOUTH DAKOTA

CITY           SKY/WX    TMP DP  RH WIND       PRES   REMARKS
RAPID CTY ARPT CLOUDY    45  39  79 N24       30.30S
PIERRE           N/A     67  31  26 MISG      30.21F
CUSTER         LGT RAIN  42  39  89 S3        30.29S FOG
ELLSWORTH AFB  CLOUDY    44  38  80 N23G29    30.30S
PHILIP         MOSUNNY   60  44  55 NW18      30.27R
PINE RIDGE     CLOUDY    52  43  71 NW7       30.29S
SPEARFISH      LGT RAIN  39  37  93 NW8       30.35S
WINNER         FAIR      68  30  24 NE8       30.22F
$$

SDZ004>011-016>023-039-040-271900-
NORTHEAST SOUTH DAKOTA

CITY           SKY/WX    TMP DP  RH WIND       PRES   REMARKS
ABERDEEN       SUNNY     68  21  16 N6        30.22F
WATERTOWN      SUNNY     63  22  20 VRB6      30.23
BROOKINGS      SUNNY     63  23  22 E5        30.22
SISSETON         N/A     65  18  16 CALM      30.21F
$$

SDZ017-020-022-023-036>040-048>070-271900-
SOUTHEAST SOUTH DAKOTA

CITY           SKY/WX    TMP DP  RH WIND       PRES   REMARKS
SIOUX FALLS    MOSUNNY   65  25  22 E6        30.21F
HURON          SUNNY     67  23  19 MISG      30.21F
CHAMBERLAIN    SUNNY     65  32  29 NW6       30.22F
MITCHELL       SUNNY     66  30  26 NE8       30.22F
YANKTON        SUNNY     64  30  27 SE5       30.20F
$$

ABBREVIATIONS USED IN REMARKS
   TC - TEMPERATURE IN CELSIUS
  WCI - WIND CHILL INDEX
   HX - HEAT INDEX
  VSB - VISIBILITY




USA.gov is the U.S. government's official web portal to all federal, state and local government web resources and services.